EHI
0 0 0 0 0 0 0 0 0 0 0 0 0 0 0 0 0 0 0 0 0 0 0 0 0 0 0 0 0 0 0 0 0 0 0 0 0 0 0 0 0 0 0 0
0 0 0 0 0 0 0 0 0 0 0 0 0 0 0 0 0 0 0 0 0 0 0 0 0 0 0 0 0 0 0 0 0 0 0 0 0 0 0 0 0 0 0 0
0 0 0 0 0 0 0 0 0 0 0 0 0 0 0 0 0 0 0 0 0 0 0 0 0 0 0 0 0 0 0 0 0 0 0 0 0 0 0 0 0 0 0 0
0 0 0 0 0 0 0 0 0 0 0 0 0 0 0 0 0 0 0 0 0 0 0 0 0 0 0 0 0 0 0 0 0 0 0 0 0 0 0 0 0 0 0 0
0 0 0 0 0 0 0 0 0 0 0 0 0 0 0 0 0 0 0 0 0 0 0 0 0 0 0 0 0 0 0 0 0 0 0 0 0 0 0 0 0 0 0 0
0 0 0 0 0 0 0 0 0 0 0 0 0 0 0 0 0 0 0 0 0 0 0 0 0 0 0 0 0 0 0 0 0 0 0 0 0 0 0 0 0 0 0 0
0 0 0 0 0 0 0 0 0 0 0 0 0 0 0 0 0 0 0 0 0 0 0 0 0 0 0 0 0 0 0 0 0 0 0 0 0 0 0 0 0 0 0 0
0 0 0 0 0 0 0 0 0 0 0 0 0 0 0 0 0 0 0 0 0 0 0 0 0 0 0 0 0 0 0 0 0 0 0 0 0 0 0 0 0 0 0 0
0 0 0 0 0 0 0 0 0 0 0 0 0 0 0 0 0 0 0 0 0 0 0 0 0 0 0 0 0 0 0 0 0 0 0 0 0 0 0 0 0 0 0 0
0 0 0 0 0 0 0 0 0 0 0 0 0 0 0 0 0 0 0 0 0 0 0 0 0 0 0 0 0 0 0 0 0 0 0 0 0 0 0 0 0 0 0 0
0 0 0 0 0 0 0 0 0 0 0 0 0 0 0 0 0 0 0 0 0 0 0 0 0 0 0 0 0 0 0 0 0 0 0 0 0 0 0 0 0 0 0 0
0 0 0 0 0 0 0 0 0 0 0 0 0 0 0 0 0 0 0 0 0 0 0 0 0 0 0 0 0 0 0 0 0 0 0 0 0 0 0 0 0 0 0 0
0 0 0 0 0 0 0 0 0 0 0 0 0 0 0 0 0 0 0 0 0 0 0 0 0 0 0 0 0 0 0 0 0 0 0 0 0 0 0 0 0 0 0 0
0 0 0 0 0 0 0 0 0 0 0 0 0 0 0 0 0 0 0 0 0 0 0 0 0 0 0 0 0 0 0 0 0 0 0 0 0 0 0 0 0 0 0 0
0 0 0 0 0 0 0 0 0 0 0 0 0 0 0 0 0 0 0 0 0 0 0 0 0 0 0 0 0 0 0 0 0 0 0 0 0 0 0 0 0 0 0 0
0 0 0 0 0 0 0 0 0 0 0 0 0 0 0 0 0 0 0 0 0 0 0 0 0 0 0 0 0 0 0 0 0 0 0 0 0 0 0 0 0 0 0 0
0 0 0 0 0 0 0 0 0 0 0 0 0 0 0 0 0 0 0 0 0 0 0 0 0 0 0 0 0 0 0 0 0 0 0 0 0 0 0 0 0 0 0 0
0 0 0 0 0 0 0 0 0 0 0 0 0 0 0 0 0 0 0 0 0 0 0 0 0 0 0 0 0 0 0 0 0 0 0 0 0 0 0 0 0 0 0 0
0 0 0 0 0 0 0 0 0 0 0 0 0 0 0 0 0 0 0 0 0 0 0 0 0 0 0 0 0 0 0 0 0 0 0 0 0 0 0 0 0 0 0 0
0 0 0 0 0 0 0 0 0 0 0 0 0 0 0 0 0 0 0 0 0 0 0 0 0 0 0 0 0 0 0 0 0 0 0 0 0 0 0 0 0 0 0 0
0 0 0 0 0 0 0 0 0 0 0 0 0 0 0 0 0 0 0 0 0 0 0 0 0 0 0 0 0 0 0 0 0 0 0 0 0 0 0 0 0 0 0 0
0 0 0 0 0 0 0 0 0 0 0 0 0 0 0 0 0 0 0 0 0 0 0 0 0 0 0 0 0 0 0 0 0 0 0 0 0 0 0 0 0 0 0 0
0 0 0 0 0 0 0 0 0 0 0 0 0 0 0 0 0 0 0 0 0 0 0 0 0 0 0 0 0 0 0 0 0 0 0 0 0 0 0 0 0 0 0 0
0 0 0 0 0 0 0 0 0 0 0 0 0 0 0 0 0 0 0 0 0 0 0 0 0 0 0 0 0 0 0 0 0 0 0 0 0 0 0 0 0 0 0 0
0 0 0 0 0 0 0 0 0 0 0 0 0 0 0 0 0 0 0 0 0 0 0 0 0 0 0 0 0 0 0 0 0 0 0 0 0 0 0 0 0 0 0 0
0 0 0 0 0 0 0 0 0 0 0 0 0 0 0 0 0 0 0 0 0 0 0 0 0 0 0 0 0 0 0 0 0 0 0 0 0 0 0 0 0 0 0 0
0 0 0 0 0 0 0 0 0 0 0 0 0 0 0 0 0 0 0 0 0 0 0 0 0 0 0 0 0 0 0 0 0 0 0 0 0 0 0 0 0 0 0 0
Wind_Speed
1 2 1 5 6 6 4 3 5 4 6 8 11 12 12 12 12 12 11 10 9 8 6 5 4 4 3 3 3 4 4 4 4 4 5 6 6 6 6 7 8 7 8 8
4 5 5 9 9 7 6 4 5 6 2 5 8 8 10 11 12 12 12 11 10 9 8 6 5 4 3 3 3 4 4 3 3 4 5 5 5 6 6 6 7 7 8 8
2 4 5 6 6 5 5 3 3 3 4 10 10 11 12 11 11 12 12 11 10 9 8 6 5 4 4 3 3 4 4 4 4 4 5 5 6 6 6 5 6 7 6 7
1 4 4 1 1 4 6 5 4 5 7 9 9 7 6 8 10 11 12 11 9 8 7 5 4 4 3 4 4 5 4 4 4 4 5 5 5 5 4 4 5 5 5 6
3 2 1 1 2 0 3 2 2 7 9 9 10 8 4 4 8 9 9 9 8 7 6 5 5 4 5 4 5 4 4 4 4 4 4 4 4 4 3 3 4 4 4 5
3 3 0 3 5 0 6 2 1 8 11 11 8 5 4 6 8 10 9 8 8 7 6 6 5 5 6 5 4 4 3 3 4 4 4 4 3 3 2 3 3 3 4 4
2 2 1 4 5 1 2 3 4 7 9 9 4 4 8 10 9 9 9 9 8 8 6 5 5 6 6 4 4 3 4 4 4 3 3 3 2 2 3 3 3 3 4 4
2 2 2 4 3 2 3 2 5 6 7 7 7 10 11 11 10 10 9 9 8 7 5 4 5 6 5 4 3 4 4 4 3 2 2 3 3 2 2 3 3 2 2 3
3 3 3 1 2 2 4 5 4 5 7 11 11 11 11 10 10 9 9 8 6 7 6 4 4 6 6 4 4 4 4 3 2 2 2 3 3 2 1 1 1 1 1 1
4 2 2 4 4 3 5 6 6 8 10 10 11 11 11 10 9 9 7 7 6 7 6 4 4 5 5 4 4 5 4 3 2 3 3 3 2 2 2 2 2 2 2 1
4 2 4 4 3 5 6 8 9 8 8 10 12 11 10 9 9 8 7 6 6 7 6 5 5 5 5 5 5 4 3 2 2 3 3 3 2 2 2 1 2 3 3 3
2 3 4 1 2 6 8 8 9 9 8 8 9 10 9 8 7 7 7 6 7 6 6 5 5 5 5 5 6 5 3 2 2 2 2 2 2 2 3 1 1 2 4 5
3 2 4 4 5 6 7 7 8 9 10 9 8 8 9 8 7 7 7 7 8 7 6 6 6 5 5 5 5 5 4 3 2 2 2 2 2 2 1 2 2 1 2 4
5 6 5 3 4 5 7 8 8 9 9 9 8 9 8 7 7 8 8 7 7 7 7 6 6 5 5 4 4 4 3 4 3 3 3 3 3 3 3 2 2 2 2 4
3 5 5 4 5 6 7 8 9 9 8 8 8 9 9 8 8 8 7 7 7 7 7 6 6 5 4 4 4 3 3 2 2 2 2 3 3 3 3 3 3 3 2 3
4 5 6 6 6 6 8 9 9 9 9 9 8 9 9 9 8 7 7 8 8 8 7 7 6 5 5 4 3 2 2 3 3 2 2 2 2 2 3 3 4 3 4 4
6 4 5 5 5 5 6 7 9 9 9 10 10 9 9 8 8 7 7 7 8 7 7 7 7 6 5 5 4 3 2 2 3 2 2 2 2 3 3 3 4 4 5 6
6 7 7 7 6 6 6 7 8 9 9 9 10 9 9 9 9 8 7 7 6 6 6 7 7 6 5 5 4 3 3 2 3 3 3 3 3 3 3 4 4 5 4 4
4 5 5 6 6 7 7 7 8 9 9 10 10 10 9 9 8 7 7 7 8 7 6 7 9 7 6 6 5 3 3 3 3 3 3 4 4 3 3 3 4 4 4 4
3 4 4 5 5 6 6 7 7 8 8 10 10 9 8 8 8 8 7 7 7 7 7 7 7 6 6 6 6 4 4 4 4 4 4 4 4 4 4 4 4 4 4 5
4 4 4 4 5 5 6 7 8 8 9 10 10 10 9 8 8 8 7 6 6 7 8 10 7 6 6 5 6 4 4 4 4 4 4 4 5 5 5 5 5 5 5 5
3 3 4 4 4 4 5 5 7 9 8 9 9 9 9 8 8 7 8 7 7 9 7 6 6 8 9 8 4 4 5 5 5 4 4 5 5 5 5 5 5 5 5 5
2 3 4 4 5 4 4 5 6 7 8 9 10 10 9 8 7 7 6 6 6 10 8 7 9 13 13 8 5 5 6 6 5 5 5 5 6 6 6 6 6 5 5 5
1 2 2 3 3 4 4 5 5 5 7 7 8 10 9 7 5 6 6 9 12 12 9 9 14 15 14 7 6 6 6 6 6 6 6 6 5 6 6 6 6 6 6 7
1 1 1 2 3 4 5 5 4 5 5 5 6 8 8 7 7 7 7 9 12 13 8 11 16 16 11 7 7 7 7 7 7 6 6 6 6 6 6 6 6 6 6 6
1 1 2 3 4 4 4 4 4 4 4 4 4 5 6 6 7 7 6 9 11 12 10 8 9 11 9 9 9 9 8 8 8 8 7 7 8 7 7 7 9 7 7 7
2 1 1 1 2 3 3 4 4 5 5 5 5 5 6 6 6 7 8 7 8 9 8 8 8 8 9 9 9 9 8 8 8 8 8 8 7 8 8 9 8 7 7 7
Wind_Direction
245 257 23 27 22 39 63 141 144 165 167 180 167 155 151 149 146 142 141 140 139 137 130 124 118 113 110 105 99 100 93 76 63 59 60 60 58 57 58 60 62 57 52 43
14 18 54 49 32 45 50 71 109 112 115 150 137 132 144 153 154 152 150 147 145 141 137 134 132 127 123 118 112 109 103 93 77 70 67 66 65 64 64 60 58 57 52 48
350 333 55 32 2 39 57 45 114 136 161 143 144 157 162 163 160 157 153 150 149 147 145 143 143 140 140 136 120 111 105 100 90 83 78 72 77 69 65 61 62 58 49 48
46 35 66 224 331 66 77 48 67 105 137 149 146 143 146 154 153 150 148 148 146 144 142 142 143 139 130 120 115 113 108 103 96 91 86 79 74 70 66 63 63 58 49 46
85 72 95 341 332 14 112 42 80 117 121 116 114 100 94 135 138 141 142 142 142 142 141 140 140 135 119 111 113 115 115 115 110 106 97 88 82 72 66 69 61 54 50 49
88 89 58 293 309 304 110 84 145 132 135 139 134 140 176 149 129 127 128 131 132 131 127 131 136 128 118 117 116 122 130 126 115 113 107 100 94 79 70 81 76 69 53 42
95 112 230 290 306 34 104 217 174 147 148 152 161 165 145 134 126 129 130 132 133 133 134 141 138 126 124 130 139 148 133 116 113 118 122 115 91 77 88 85 73 61 50 30
85 88 265 301 8 97 186 141 131 135 141 131 119 118 124 130 131 132 132 135 136 134 137 140 138 131 130 145 155 135 121 115 116 125 133 110 99 83 80 90 89 70 46 18
145 189 240 7 96 132 133 120 127 134 133 129 126 131 132 134 136 137 138 139 136 138 137 137 139 137 140 157 145 125 117 119 120 108 96 100 108 104 79 84 110 126 113 50
79 61 57 62 79 80 104 117 126 134 134 133 132 137 137 139 139 139 138 139 138 138 139 144 146 145 153 152 136 125 125 130 124 107 89 73 76 99 111 113 119 127 143 149
84 99 59 35 68 99 100 109 115 124 130 136 137 140 143 144 145 145 141 141 143 147 151 156 150 149 156 145 134 130 136 137 118 113 115 96 75 70 111 170 191 166 172 168
183 208 146 168 130 119 118 124 129 127 123 130 138 141 140 145 146 145 146 145 146 150 153 157 154 157 162 152 144 141 143 150 144 139 136 130 116 49 21 62 72 125 161 162
145 124 119 118 107 109 118 128 131 132 137 139 138 138 139 143 146 147 150 152 156 161 161 158 157 163 168 160 152 153 165 178 177 174 170 171 170 164 201 334 352 27 171 175
116 100 85 88 109 112 120 125 123 124 131 136 138 137 136 138 145 151 159 163 160 157 156 156 157 169 177 164 158 164 174 185 184 195 199 198 198 200 194 198 247 289 279 242
108 121 131 119 111 118 125 128 128 132 135 137 142 145 147 148 156 162 162 158 153 155 161 162 165 180 182 166 161 169 171 185 190 198 206 207 209 212 211 212 221 241 270 278
110 111 117 118 127 136 137 140 144 151 152 150 153 158 157 155 156 158 159 156 156 168 173 171 177 188 180 167 162 168 197 208 197 204 224 236 226 219 217 218 221 227 233 238
129 140 145 147 153 154 156 159 158 159 159 159 162 159 154 150 151 158 164 165 167 173 174 175 184 189 183 177 176 189 213 239 235 231 233 233 231 232 226 216 217 223 233 232
165 171 175 172 168 166 166 165 161 160 164 165 159 155 157 161 166 171 170 163 160 167 178 181 182 183 187 188 188 198 206 226 232 234 244 248 247 240 233 222 219 225 236 244
143 153 166 169 169 166 163 163 164 165 165 162 161 164 167 169 169 169 164 161 166 179 198 193 185 182 194 206 200 202 211 226 240 244 245 254 259 253 239 230 230 232 230 229
144 147 153 160 157 153 157 162 161 163 166 163 162 163 167 172 171 169 168 177 189 191 190 189 187 192 202 211 207 205 214 226 233 241 243 242 246 250 245 240 238 235 230 227
148 146 143 141 144 151 158 161 164 169 169 166 168 174 177 178 174 170 171 192 211 193 185 190 191 198 203 206 209 213 220 228 233 239 240 239 242 244 245 244 243 240 234 231
139 152 153 146 144 154 164 163 168 170 167 170 175 174 172 176 178 180 189 196 199 192 188 193 198 205 208 208 209 218 229 234 236 239 240 238 237 240 244 242 241 242 237 231
120 139 152 161 165 168 165 165 169 171 175 177 178 178 179 183 181 182 202 209 193 194 193 199 205 209 211 210 214 221 231 237 240 240 240 238 237 237 238 240 238 236 236 234
119 133 158 165 148 148 168 189 183 180 182 183 185 183 178 180 193 201 199 195 197 197 202 206 207 211 211 212 216 223 230 236 240 243 243 244 242 240 238 237 238 237 235 236
162 164 162 154 162 184 193 192 186 186 184 188 193 192 188 186 191 200 198 198 199 199 208 211 210 211 210 215 219 225 231 236 239 240 242 244 244 242 242 240 237 238 237 236
228 229 224 210 200 196 188 178 182 191 189 195 205 202 199 198 198 197 197 202 201 202 207 210 209 210 214 219 223 227 231 239 243 241 241 242 243 242 242 241 241 238 237 237
276 261 248 252 239 209 192 185 187 196 197 198 207 210 204 201 202 204 205 205 203 206 211 211 208 209 213 219 225 229 231 234 237 238 240 241 241 240 241 242 242 241 239 239